Year,Month,Day,Hour,Minute,Value (Times are PST for temperature in C)
2009,09,18,00,00,14.80
2009,09,18,00,01,14.80
2009,09,18,00,02,14.80
2009,09,18,00,03,14.80
2009,09,18,00,04,14.80
2009,09,18,00,05,14.80
2009,09,18,00,06,14.80
2009,09,18,00,07,14.80
2009,09,18,00,08,14.70
2009,09,18,00,09,14.70
2009,09,18,00,10,14.70
2009,09,18,00,11,14.70
2009,09,18,00,12,14.70
2009,09,18,00,13,14.70
2009,09,18,00,14,14.70
2009,09,18,00,15,14.70
2009,09,18,00,16,14.70
2009,09,18,00,17,14.70
2009,09,18,00,18,14.70
2009,09,18,00,19,14.70
2009,09,18,00,20,14.70
2009,09,18,00,21,14.70
2009,09,18,00,22,14.70
2009,09,18,00,23,14.70
2009,09,18,00,24,14.70
2009,09,18,00,25,14.70
2009,09,18,00,26,14.70
2009,09,18,00,27,14.70
2009,09,18,00,28,14.70
2009,09,18,00,29,14.70
2009,09,18,00,30,14.70
2009,09,18,00,31,14.70
2009,09,18,00,32,14.70
2009,09,18,00,33,14.70
2009,09,18,00,34,14.70
2009,09,18,00,35,14.70
2009,09,18,00,36,14.80
2009,09,18,00,37,14.80
2009,09,18,00,38,14.80
2009,09,18,00,39,14.80
2009,09,18,00,40,14.80
2009,09,18,00,41,14.80
2009,09,18,00,42,14.80
2009,09,18,00,43,14.80
2009,09,18,00,44,14.80
2009,09,18,00,45,14.80
2009,09,18,00,46,14.80
2009,09,18,00,47,14.80
2009,09,18,00,48,14.80
2009,09,18,00,49,14.80
2009,09,18,00,50,14.80
2009,09,18,00,51,14.80
2009,09,18,00,52,14.80
2009,09,18,00,53,14.80
2009,09,18,00,54,14.80
2009,09,18,00,55,14.80
2009,09,18,00,56,14.80
2009,09,18,00,57,14.80
2009,09,18,00,58,14.80
2009,09,18,00,59,14.80
2009,09,18,01,00,14.80
2009,09,18,01,01,14.80
2009,09,18,01,02,14.80
2009,09,18,01,03,14.80
2009,09,18,01,04,14.80
2009,09,18,01,05,14.80
2009,09,18,01,06,14.80
2009,09,18,01,07,14.80
2009,09,18,01,08,14.80
2009,09,18,01,09,14.80
2009,09,18,01,10,14.80
2009,09,18,01,11,14.80
2009,09,18,01,12,14.80
2009,09,18,01,13,14.80
2009,09,18,01,14,14.80
2009,09,18,01,15,14.80
2009,09,18,01,16,14.80
2009,09,18,01,17,14.70
2009,09,18,01,18,14.70
2009,09,18,01,19,14.70
2009,09,18,01,20,14.70
2009,09,18,01,21,14.70
2009,09,18,01,22,14.80
2009,09,18,01,23,14.80
2009,09,18,01,24,14.80
2009,09,18,01,25,14.80
2009,09,18,01,26,14.80
2009,09,18,01,27,14.90
2009,09,18,01,28,14.90
2009,09,18,01,29,14.90
2009,09,18,01,30,14.90
2009,09,18,01,31,14.90
2009,09,18,01,32,15.00
2009,09,18,01,33,15.00
2009,09,18,01,34,15.00
2009,09,18,01,35,15.00
2009,09,18,01,36,15.00
2009,09,18,01,37,15.00
2009,09,18,01,38,15.10
2009,09,18,01,39,15.10
2009,09,18,01,40,15.10
2009,09,18,01,41,15.10
2009,09,18,01,42,15.10
2009,09,18,01,43,15.10
2009,09,18,01,44,15.10
2009,09,18,01,45,15.10
2009,09,18,01,46,15.10
2009,09,18,01,47,15.10
2009,09,18,01,48,15.10
2009,09,18,01,49,15.20
2009,09,18,01,50,15.20
2009,09,18,01,51,15.20
2009,09,18,01,52,15.20
2009,09,18,01,53,15.10
2009,09,18,01,54,15.10
2009,09,18,01,55,15.10
2009,09,18,01,56,15.10
2009,09,18,01,57,15.10
2009,09,18,01,58,15.10
2009,09,18,01,59,15.00
2009,09,18,02,00,15.00
2009,09,18,02,01,15.00
2009,09,18,02,02,15.00
2009,09,18,02,03,15.00
2009,09,18,02,04,14.90
2009,09,18,02,05,14.90
2009,09,18,02,06,14.90
2009,09,18,02,07,14.90
2009,09,18,02,08,14.90
2009,09,18,02,09,14.90
2009,09,18,02,10,14.90
2009,09,18,02,11,14.90
2009,09,18,02,12,14.90
2009,09,18,02,13,14.90
2009,09,18,02,14,14.90
2009,09,18,02,15,14.80
2009,09,18,02,16,14.80
2009,09,18,02,17,14.80
2009,09,18,02,18,14.80
2009,09,18,02,19,14.80
2009,09,18,02,20,14.80
2009,09,18,02,21,14.80
2009,09,18,02,22,14.80
2009,09,18,02,23,14.80
2009,09,18,02,24,14.80
2009,09,18,02,25,14.80
2009,09,18,02,26,14.90
2009,09,18,02,27,14.90
2009,09,18,02,28,14.90
2009,09,18,02,29,15.00
2009,09,18,02,30,15.00
2009,09,18,02,31,15.10
2009,09,18,02,32,15.10
2009,09,18,02,33,15.20
2009,09,18,02,34,15.20
2009,09,18,02,35,15.20
2009,09,18,02,36,15.30
2009,09,18,02,37,15.30
2009,09,18,02,38,15.30
2009,09,18,02,39,15.30
2009,09,18,02,40,15.30
2009,09,18,02,41,15.30
2009,09,18,02,42,15.30
2009,09,18,02,43,15.30
2009,09,18,02,44,15.20
2009,09,18,02,45,15.20
2009,09,18,02,46,15.20
2009,09,18,02,47,15.20
2009,09,18,02,48,15.30
2009,09,18,02,49,15.30
2009,09,18,02,50,15.40
2009,09,18,02,51,15.40
2009,09,18,02,52,15.50
2009,09,18,02,53,15.50
2009,09,18,02,54,15.50
2009,09,18,02,55,15.50
2009,09,18,02,56,15.50
2009,09,18,02,57,15.50
2009,09,18,02,58,15.50
2009,09,18,02,59,15.40
2009,09,18,03,00,15.40
2009,09,18,03,01,15.40
2009,09,18,03,02,15.30
2009,09,18,03,03,15.30
2009,09,18,03,04,15.30
2009,09,18,03,05,15.30
2009,09,18,03,06,15.30
2009,09,18,03,07,15.30
2009,09,18,03,08,15.30
2009,09,18,03,09,15.30
2009,09,18,03,10,15.30
2009,09,18,03,11,15.30
2009,09,18,03,12,15.30
2009,09,18,03,13,15.30
2009,09,18,03,14,15.30
2009,09,18,03,15,15.30
2009,09,18,03,16,15.30
2009,09,18,03,17,15.30
2009,09,18,03,18,15.20
2009,09,18,03,19,15.20
2009,09,18,03,20,15.20
2009,09,18,03,21,15.20
2009,09,18,03,22,15.20
2009,09,18,03,23,15.20
2009,09,18,03,24,15.20
2009,09,18,03,25,15.20
2009,09,18,03,26,15.30
2009,09,18,03,27,15.30
2009,09,18,03,28,15.30
2009,09,18,03,29,15.30
2009,09,18,03,30,15.30
2009,09,18,03,31,15.30
2009,09,18,03,32,15.30
2009,09,18,03,33,15.30
2009,09,18,03,34,15.30
2009,09,18,03,35,15.40
2009,09,18,03,36,15.40
2009,09,18,03,37,15.40
2009,09,18,03,38,15.50
2009,09,18,03,39,15.50
2009,09,18,03,40,15.50
2009,09,18,03,41,15.50
2009,09,18,03,42,15.60
2009,09,18,03,43,15.60
2009,09,18,03,44,15.60
2009,09,18,03,45,15.60
2009,09,18,03,46,15.60
2009,09,18,03,47,15.60
2009,09,18,03,48,15.60
2009,09,18,03,49,15.60
2009,09,18,03,50,15.60
2009,09,18,03,51,15.70
2009,09,18,03,52,15.70
2009,09,18,03,53,15.70
2009,09,18,03,54,15.70
2009,09,18,03,55,15.70
2009,09,18,03,56,15.70
2009,09,18,03,57,15.70
2009,09,18,03,58,15.70
2009,09,18,03,59,15.70
2009,09,18,04,00,15.70
2009,09,18,04,01,15.70
2009,09,18,04,02,15.70
2009,09,18,04,03,15.70
2009,09,18,04,04,15.70
2009,09,18,04,05,15.70
2009,09,18,04,07,15.80
2009,09,18,04,08,15.80
2009,09,18,04,09,15.80
2009,09,18,04,10,15.80
2009,09,18,04,11,15.80
2009,09,18,04,12,15.70
2009,09,18,04,13,15.70
2009,09,18,04,14,15.70
2009,09,18,04,15,15.70
2009,09,18,04,16,15.60
2009,09,18,04,17,15.60
2009,09,18,04,18,15.60
2009,09,18,04,19,15.60
2009,09,18,04,20,15.50
2009,09,18,04,21,15.50
2009,09,18,04,22,15.50
2009,09,18,04,23,15.50
2009,09,18,04,24,15.40
2009,09,18,04,25,15.40
2009,09,18,04,26,15.40
2009,09,18,04,27,15.40
2009,09,18,04,28,15.40
2009,09,18,04,29,15.40
2009,09,18,04,30,15.40
2009,09,18,04,31,15.40
2009,09,18,04,32,15.40
2009,09,18,04,33,15.40
2009,09,18,04,34,15.40
2009,09,18,04,35,15.40
2009,09,18,04,36,15.30
2009,09,18,04,37,15.30
2009,09,18,04,38,15.30
2009,09,18,04,39,15.30
2009,09,18,04,40,15.30
2009,09,18,04,41,15.30
2009,09,18,04,42,15.30
2009,09,18,04,43,15.30
2009,09,18,04,44,15.30
2009,09,18,04,45,15.30
2009,09,18,04,46,15.30
2009,09,18,04,47,15.30
2009,09,18,04,48,15.30
2009,09,18,04,49,15.30
2009,09,18,04,50,15.30
2009,09,18,04,51,15.30
2009,09,18,04,52,15.30
2009,09,18,04,53,15.30
2009,09,18,04,54,15.30
2009,09,18,04,55,15.30
2009,09,18,04,56,15.30
2009,09,18,04,57,15.30
2009,09,18,04,58,15.30
2009,09,18,04,59,15.30
2009,09,18,05,00,15.30
2009,09,18,05,01,15.30
2009,09,18,05,02,15.30
2009,09,18,05,03,15.30
2009,09,18,05,04,15.30
2009,09,18,05,05,15.30
2009,09,18,05,06,15.30
2009,09,18,05,07,15.30
2009,09,18,05,08,15.30
2009,09,18,05,09,15.30
2009,09,18,05,10,15.30
2009,09,18,05,11,15.30
2009,09,18,05,12,15.30
2009,09,18,05,13,15.30
2009,09,18,05,14,15.30
2009,09,18,05,15,15.30
2009,09,18,05,16,15.30
2009,09,18,05,17,15.30
2009,09,18,05,18,15.30
2009,09,18,05,19,15.30
2009,09,18,05,20,15.20
2009,09,18,05,21,15.30
2009,09,18,05,22,15.20
2009,09,18,05,23,15.20
2009,09,18,05,24,15.20
2009,09,18,05,25,15.20
2009,09,18,05,26,15.20
2009,09,18,05,27,15.20
2009,09,18,05,28,15.20
2009,09,18,05,29,15.10
2009,09,18,05,30,15.10
2009,09,18,05,31,15.10
2009,09,18,05,32,15.10
2009,09,18,05,33,15.10
2009,09,18,05,34,15.10
2009,09,18,05,35,15.10
2009,09,18,05,36,15.00
2009,09,18,05,37,15.00
2009,09,18,05,38,15.00
2009,09,18,05,39,15.00
2009,09,18,05,40,15.00
2009,09,18,05,41,15.00
2009,09,18,05,42,15.00
2009,09,18,05,43,14.90
2009,09,18,05,44,14.90
2009,09,18,05,45,14.90
2009,09,18,05,46,14.90
2009,09,18,05,47,14.90
2009,09,18,05,48,14.80
2009,09,18,05,49,14.80
2009,09,18,05,50,14.80
2009,09,18,05,51,14.80
2009,09,18,05,52,14.80
2009,09,18,05,53,14.80
2009,09,18,05,54,14.80
2009,09,18,05,55,14.70
2009,09,18,05,56,14.70
2009,09,18,05,57,14.70
2009,09,18,05,58,14.70
2009,09,18,05,59,14.60
2009,09,18,06,00,14.60
2009,09,18,06,01,14.60
2009,09,18,06,02,14.60
2009,09,18,06,03,14.60
2009,09,18,06,04,14.60
2009,09,18,06,05,14.60
2009,09,18,06,06,14.50
2009,09,18,06,07,14.50
2009,09,18,06,08,14.50
2009,09,18,06,09,14.50
2009,09,18,06,10,14.50
2009,09,18,06,11,14.50
2009,09,18,06,12,14.50
2009,09,18,06,13,14.40
2009,09,18,06,14,14.40
2009,09,18,06,15,14.40
2009,09,18,06,16,14.30
2009,09,18,06,17,14.30
2009,09,18,06,18,14.30
2009,09,18,06,19,14.20
2009,09,18,06,20,14.20
2009,09,18,06,21,14.20
2009,09,18,06,22,14.20
2009,09,18,06,23,14.20
2009,09,18,06,24,14.20
2009,09,18,06,25,14.10
2009,09,18,06,26,14.10
2009,09,18,06,27,14.10
2009,09,18,06,28,14.10
2009,09,18,06,29,14.10
2009,09,18,06,30,14.10
2009,09,18,06,31,14.10
2009,09,18,06,32,14.10
2009,09,18,06,33,14.10
2009,09,18,06,34,14.10
2009,09,18,06,35,14.10
2009,09,18,06,36,14.10
2009,09,18,06,37,14.20
2009,09,18,06,38,14.20
2009,09,18,06,39,14.20
2009,09,18,06,40,14.20
2009,09,18,06,41,14.20
2009,09,18,06,42,14.20
2009,09,18,06,43,14.20
2009,09,18,06,44,14.20
2009,09,18,06,45,14.20
2009,09,18,06,46,14.20
2009,09,18,06,47,14.20
2009,09,18,06,48,14.20
2009,09,18,06,49,14.20
2009,09,18,06,50,14.20
2009,09,18,06,51,14.20
2009,09,18,06,52,14.30
2009,09,18,06,53,14.30
2009,09,18,06,54,14.30
2009,09,18,06,55,14.30
2009,09,18,06,56,14.30
2009,09,18,06,57,14.30
2009,09,18,06,58,14.30
2009,09,18,06,59,14.30
2009,09,18,07,00,14.30
2009,09,18,07,01,14.30
2009,09,18,07,02,14.30
2009,09,18,07,03,14.20
2009,09,18,07,04,14.20
2009,09,18,07,05,14.20
2009,09,18,07,06,14.20
2009,09,18,07,07,14.20
2009,09,18,07,08,14.20
2009,09,18,07,09,14.20
2009,09,18,07,10,14.20
2009,09,18,07,11,14.20
2009,09,18,07,12,14.20
2009,09,18,07,13,14.20
2009,09,18,07,14,14.10
2009,09,18,07,15,14.10
2009,09,18,07,16,14.00
2009,09,18,07,17,14.00
2009,09,18,07,18,14.00
2009,09,18,07,19,13.90
2009,09,18,07,20,13.90
2009,09,18,07,21,13.90
2009,09,18,07,22,13.90
2009,09,18,07,23,13.90
2009,09,18,07,24,13.90
2009,09,18,07,25,13.90
2009,09,18,07,26,13.90
2009,09,18,07,27,13.90
2009,09,18,07,28,13.90
2009,09,18,07,29,14.00
2009,09,18,07,30,14.00
2009,09,18,07,31,14.00
2009,09,18,07,32,14.00
2009,09,18,07,33,14.00
2009,09,18,07,34,14.00
2009,09,18,07,35,14.00
2009,09,18,07,36,14.00
2009,09,18,07,37,14.00
2009,09,18,07,38,14.00
2009,09,18,07,39,14.00
2009,09,18,07,40,14.00
2009,09,18,07,41,14.00
2009,09,18,07,42,14.00
2009,09,18,07,43,14.00
2009,09,18,07,44,14.00
2009,09,18,07,45,14.00
2009,09,18,07,46,14.10
2009,09,18,07,47,14.10
2009,09,18,07,48,14.10
2009,09,18,07,49,14.10
2009,09,18,07,50,14.10
2009,09,18,07,51,14.20
2009,09,18,07,52,14.20
2009,09,18,07,53,14.20
2009,09,18,07,54,14.20
2009,09,18,07,55,14.20
2009,09,18,07,56,14.20
2009,09,18,07,57,14.20
2009,09,18,07,58,14.20
2009,09,18,07,59,14.30
2009,09,18,08,00,14.30
2009,09,18,08,01,14.30
2009,09,18,08,02,14.30
2009,09,18,08,03,14.40
2009,09,18,08,04,14.40
2009,09,18,08,05,14.40
2009,09,18,08,06,14.50
2009,09,18,08,07,14.50
2009,09,18,08,08,14.60
2009,09,18,08,09,14.60
2009,09,18,08,10,14.70
2009,09,18,08,11,14.70
2009,09,18,08,12,14.80
2009,09,18,08,13,14.80
2009,09,18,08,14,14.80
2009,09,18,08,15,14.90
2009,09,18,08,16,14.90
2009,09,18,08,17,15.00
2009,09,18,08,18,15.10
2009,09,18,08,19,15.10
2009,09,18,08,20,15.20
2009,09,18,08,21,15.20
2009,09,18,08,22,15.30
2009,09,18,08,23,15.30
2009,09,18,08,24,15.40
2009,09,18,08,25,15.50
2009,09,18,08,26,15.50
2009,09,18,08,27,15.50
2009,09,18,08,28,15.60
2009,09,18,08,29,15.60
2009,09,18,08,30,15.60
2009,09,18,08,31,15.60
2009,09,18,08,32,15.60
2009,09,18,08,33,15.60
2009,09,18,08,34,15.60
2009,09,18,08,35,15.70
2009,09,18,08,36,15.70
2009,09,18,08,37,15.70
2009,09,18,08,38,15.70
2009,09,18,08,39,15.70
2009,09,18,08,40,15.70
2009,09,18,08,41,15.80
2009,09,18,08,42,15.80
2009,09,18,08,43,15.80
2009,09,18,08,44,15.80
2009,09,18,08,45,15.80
2009,09,18,08,46,15.80
2009,09,18,08,47,15.80
2009,09,18,08,48,15.80
2009,09,18,08,49,15.80
2009,09,18,08,50,15.80
2009,09,18,08,51,15.80
2009,09,18,08,52,15.90
2009,09,18,08,53,15.90
2009,09,18,08,54,15.90
2009,09,18,08,55,15.90
2009,09,18,08,56,15.90
2009,09,18,08,57,15.90
2009,09,18,08,58,15.90
2009,09,18,08,59,16.00
2009,09,18,09,00,16.10
2009,09,18,09,01,16.00
2009,09,18,09,02,16.10
2009,09,18,09,03,16.10
2009,09,18,09,04,16.10
2009,09,18,09,05,16.10
2009,09,18,09,06,16.10
2009,09,18,09,07,16.10
2009,09,18,09,08,16.10
2009,09,18,09,09,16.10
2009,09,18,09,10,16.20
2009,09,18,09,11,16.20
2009,09,18,09,12,16.20
2009,09,18,09,13,16.30
2009,09,18,09,14,16.30
2009,09,18,09,15,16.30
2009,09,18,09,16,16.40
2009,09,18,09,17,16.40
2009,09,18,09,18,16.40
2009,09,18,09,19,16.50
2009,09,18,09,20,16.60
2009,09,18,09,21,16.60
2009,09,18,09,22,16.70
2009,09,18,09,23,16.70
2009,09,18,09,24,16.70
2009,09,18,09,25,16.70
2009,09,18,09,26,16.70
2009,09,18,09,27,16.70
2009,09,18,09,28,16.70
2009,09,18,09,29,16.70
2009,09,18,09,30,16.70
2009,09,18,09,31,16.80
2009,09,18,09,32,16.80
2009,09,18,09,33,16.80
2009,09,18,09,34,16.80
2009,09,18,09,35,16.80
2009,09,18,09,36,16.80
2009,09,18,09,37,16.80
2009,09,18,09,38,16.90
2009,09,18,09,39,16.80
2009,09,18,09,40,16.80
2009,09,18,09,41,16.80
2009,09,18,09,42,16.80
2009,09,18,09,43,16.80
2009,09,18,09,44,16.80
2009,09,18,09,45,16.80
2009,09,18,09,46,16.80
2009,09,18,09,47,16.80
2009,09,18,09,48,16.80
2009,09,18,09,49,16.90
2009,09,18,09,50,16.90
2009,09,18,09,51,16.90
2009,09,18,09,52,16.90
2009,09,18,09,53,17.00
2009,09,18,09,54,17.00
2009,09,18,09,55,17.00
2009,09,18,09,56,17.00
2009,09,18,09,57,17.00
2009,09,18,09,58,17.00
2009,09,18,09,59,17.00
2009,09,18,10,00,17.00
2009,09,18,10,01,16.90
2009,09,18,10,02,16.90
2009,09,18,10,03,16.90
2009,09,18,10,04,16.80
2009,09,18,10,05,16.80
2009,09,18,10,06,16.70
2009,09,18,10,07,16.70
2009,09,18,10,08,16.70
2009,09,18,10,09,16.70
2009,09,18,10,10,16.70
2009,09,18,10,11,16.70
2009,09,18,10,12,16.70
2009,09,18,10,13,16.80
2009,09,18,10,14,16.80
2009,09,18,10,15,16.90
2009,09,18,10,16,16.90
2009,09,18,10,17,16.90
2009,09,18,10,18,16.90
2009,09,18,10,19,16.90
2009,09,18,10,20,17.00
2009,09,18,10,21,17.00
2009,09,18,10,22,17.10
2009,09,18,10,23,17.10
2009,09,18,10,24,17.10
2009,09,18,10,25,17.20
2009,09,18,10,26,17.20
2009,09,18,10,27,17.20
2009,09,18,10,28,17.30
2009,09,18,10,29,17.30
2009,09,18,10,30,17.30
2009,09,18,10,31,17.30
2009,09,18,10,32,17.20
2009,09,18,10,33,17.20
2009,09,18,10,34,17.20
2009,09,18,10,35,17.20
2009,09,18,10,36,17.30
2009,09,18,10,37,17.30
2009,09,18,10,38,17.40
2009,09,18,10,39,17.40
2009,09,18,10,40,17.50
2009,09,18,10,41,17.50
2009,09,18,10,42,17.40
2009,09,18,10,43,17.40
2009,09,18,10,44,17.30
2009,09,18,10,45,17.30
2009,09,18,10,46,17.20
2009,09,18,10,47,17.20
2009,09,18,10,48,17.20
2009,09,18,10,49,17.20
2009,09,18,10,50,17.20
2009,09,18,10,51,17.20
2009,09,18,10,52,17.20
2009,09,18,10,53,17.30
2009,09,18,10,54,17.30
2009,09,18,10,55,17.30
2009,09,18,10,56,17.30
2009,09,18,10,57,17.50
2009,09,18,10,58,17.50
2009,09,18,10,59,17.60
2009,09,18,11,00,17.60
2009,09,18,11,01,17.70
2009,09,18,11,02,17.80
2009,09,18,11,03,17.90
2009,09,18,11,04,17.90
2009,09,18,11,05,17.90
2009,09,18,11,06,18.00
2009,09,18,11,07,18.10
2009,09,18,11,08,18.00
2009,09,18,11,09,17.90
2009,09,18,11,10,17.80
2009,09,18,11,11,17.80
2009,09,18,11,12,17.80
2009,09,18,11,13,17.80
2009,09,18,11,14,17.80
2009,09,18,11,15,17.70
2009,09,18,11,16,17.70
2009,09,18,11,17,17.70
2009,09,18,11,18,17.70
2009,09,18,11,19,17.70
2009,09,18,11,20,17.70
2009,09,18,11,21,17.70
2009,09,18,11,22,17.80
2009,09,18,11,23,17.80
2009,09,18,11,24,17.80
2009,09,18,11,25,17.80
2009,09,18,11,26,17.90
2009,09,18,11,27,17.90
2009,09,18,11,28,18.00
2009,09,18,11,29,18.20
2009,09,18,11,30,18.20
2009,09,18,11,31,18.20
2009,09,18,11,32,18.30
2009,09,18,11,33,18.40
2009,09,18,11,34,18.40
2009,09,18,11,35,18.40
2009,09,18,11,36,18.40
2009,09,18,11,37,18.40
2009,09,18,11,38,18.30
2009,09,18,11,39,18.30
2009,09,18,11,40,18.40
2009,09,18,11,41,18.40
2009,09,18,11,42,18.50
2009,09,18,11,43,18.60
2009,09,18,11,44,18.60
2009,09,18,11,45,18.60
2009,09,18,11,46,18.60
2009,09,18,11,47,18.60
2009,09,18,11,48,18.50
2009,09,18,11,49,18.50
2009,09,18,11,50,18.50
2009,09,18,11,51,18.50
2009,09,18,11,52,18.50
2009,09,18,11,53,18.60
2009,09,18,11,54,18.60
2009,09,18,11,55,18.70
2009,09,18,11,56,18.70
2009,09,18,11,57,18.70
2009,09,18,11,58,18.80
2009,09,18,11,59,18.80
2009,09,18,12,00,18.80
2009,09,18,12,01,18.90
2009,09,18,12,02,19.00
2009,09,18,12,03,19.10
2009,09,18,12,04,19.10
2009,09,18,12,05,19.20
2009,09,18,12,06,19.30
2009,09,18,12,07,19.30
2009,09,18,12,08,19.30
2009,09,18,12,09,19.30
2009,09,18,12,10,19.30
2009,09,18,12,11,19.40
2009,09,18,12,12,19.40
2009,09,18,12,13,19.50
2009,09,18,12,14,19.60
2009,09,18,12,15,19.70
2009,09,18,12,16,19.80
2009,09,18,12,17,19.80
2009,09,18,12,18,19.90
2009,09,18,12,19,19.90
2009,09,18,12,20,19.90
2009,09,18,12,21,19.90
2009,09,18,12,22,19.90
2009,09,18,12,23,20.00
2009,09,18,12,24,20.10
2009,09,18,12,25,20.10
2009,09,18,12,26,20.10
2009,09,18,12,27,20.00
2009,09,18,12,28,20.00
2009,09,18,12,29,20.10
2009,09,18,12,30,20.10
2009,09,18,12,31,20.20
2009,09,18,12,32,20.20
2009,09,18,12,33,20.20
2009,09,18,12,34,20.20
2009,09,18,12,35,20.20
2009,09,18,12,36,20.20
2009,09,18,12,37,20.20
2009,09,18,12,38,20.20
2009,09,18,12,39,20.10
2009,09,18,12,40,20.10
2009,09,18,12,41,20.10
2009,09,18,12,42,20.10
2009,09,18,12,43,20.00
2009,09,18,12,44,19.90
2009,09,18,12,45,19.90
2009,09,18,12,46,19.90
2009,09,18,12,47,19.90
2009,09,18,12,48,20.00
2009,09,18,12,49,20.10
2009,09,18,12,50,19.90
2009,09,18,12,51,19.90
2009,09,18,12,52,19.90
2009,09,18,12,53,19.80
2009,09,18,12,54,19.80
2009,09,18,12,55,19.80
2009,09,18,12,56,19.70
2009,09,18,12,57,19.80
2009,09,18,12,58,19.80
2009,09,18,12,59,19.80
2009,09,18,13,00,19.80
2009,09,18,13,01,19.80
2009,09,18,13,02,19.80
2009,09,18,13,03,19.80
2009,09,18,13,04,19.80
2009,09,18,13,05,19.80
2009,09,18,13,06,19.90
2009,09,18,13,07,19.90
2009,09,18,13,08,19.90
2009,09,18,13,09,19.90
2009,09,18,13,10,19.90
2009,09,18,13,11,19.90
2009,09,18,13,12,19.90
2009,09,18,13,13,19.90
2009,09,18,13,14,19.80
2009,09,18,13,15,19.80
2009,09,18,13,16,19.80
2009,09,18,13,17,19.70
2009,09,18,13,18,19.70
2009,09,18,13,19,19.70
2009,09,18,13,20,19.70
2009,09,18,13,21,19.80
2009,09,18,13,22,19.80
2009,09,18,13,23,19.80
2009,09,18,13,24,19.90
2009,09,18,13,25,19.90
2009,09,18,13,26,19.90
2009,09,18,13,27,20.00
2009,09,18,13,28,20.10
2009,09,18,13,29,20.20
2009,09,18,13,30,20.20
2009,09,18,13,31,20.20
2009,09,18,13,32,20.30
2009,09,18,13,33,20.30
2009,09,18,13,34,20.40
2009,09,18,13,35,20.50
2009,09,18,13,36,20.60
2009,09,18,13,37,20.60
2009,09,18,13,38,20.70
2009,09,18,13,39,20.80
2009,09,18,13,40,20.70
2009,09,18,13,41,20.70
2009,09,18,13,42,20.50
2009,09,18,13,43,20.40
2009,09,18,13,44,20.30
2009,09,18,13,45,20.30
2009,09,18,13,46,20.40
2009,09,18,13,47,20.40
2009,09,18,13,48,20.40
2009,09,18,13,49,20.40
2009,09,18,13,50,20.50
2009,09,18,13,51,20.60
2009,09,18,13,52,20.70
2009,09,18,13,53,20.70
2009,09,18,13,54,20.80
2009,09,18,13,55,20.80
2009,09,18,13,56,20.80
2009,09,18,13,57,20.80
2009,09,18,13,58,20.70
2009,09,18,13,59,20.70
2009,09,18,14,00,20.70
2009,09,18,14,01,20.70
2009,09,18,14,02,20.80
2009,09,18,14,03,20.80
2009,09,18,14,04,20.90
2009,09,18,14,05,20.90
2009,09,18,14,06,21.00
2009,09,18,14,07,21.10
2009,09,18,14,08,21.10
2009,09,18,14,09,21.20
2009,09,18,14,10,21.30
2009,09,18,14,11,21.30
2009,09,18,14,12,21.30
2009,09,18,14,13,21.40
2009,09,18,14,14,21.40
2009,09,18,14,15,21.40
2009,09,18,14,16,21.40
2009,09,18,14,17,21.40
2009,09,18,14,18,21.60
2009,09,18,14,19,21.60
2009,09,18,14,20,21.50
2009,09,18,14,21,21.30
2009,09,18,14,22,21.20
2009,09,18,14,23,21.00
2009,09,18,14,24,21.00
2009,09,18,14,25,20.80
2009,09,18,14,26,20.80
2009,09,18,14,27,20.80
2009,09,18,14,28,20.80
2009,09,18,14,29,20.80
2009,09,18,14,30,21.00
2009,09,18,14,31,21.10
2009,09,18,14,32,21.10
2009,09,18,14,33,21.20
2009,09,18,14,34,21.10
2009,09,18,14,35,21.00
2009,09,18,14,36,20.90
2009,09,18,14,37,20.80
2009,09,18,14,38,20.80
2009,09,18,14,39,20.70
2009,09,18,14,40,20.80
2009,09,18,14,41,20.80
2009,09,18,14,42,20.90
2009,09,18,14,43,21.00
2009,09,18,14,44,21.00
2009,09,18,14,45,21.10
2009,09,18,14,46,21.20
2009,09,18,14,47,21.20
2009,09,18,14,48,21.20
2009,09,18,14,49,21.20
2009,09,18,14,50,21.20
2009,09,18,14,51,21.20
2009,09,18,14,52,21.10
2009,09,18,14,53,21.00
2009,09,18,14,54,21.00
2009,09,18,14,55,20.80
2009,09,18,14,56,20.70
2009,09,18,14,57,20.60
2009,09,18,14,58,20.60
2009,09,18,14,59,20.50
2009,09,18,15,00,20.40
2009,09,18,15,01,20.30
2009,09,18,15,02,20.30
2009,09,18,15,03,20.30
2009,09,18,15,04,20.20
2009,09,18,15,05,20.20
2009,09,18,15,06,20.20
2009,09,18,15,07,20.20
2009,09,18,15,08,20.20
2009,09,18,15,09,20.20
2009,09,18,15,10,20.20
2009,09,18,15,11,20.20
2009,09,18,15,12,20.20
2009,09,18,15,13,20.20
2009,09,18,15,14,20.20
2009,09,18,15,15,20.20
2009,09,18,15,16,20.20
2009,09,18,15,17,20.30
2009,09,18,15,18,20.40
2009,09,18,15,19,20.40
2009,09,18,15,20,20.40
2009,09,18,15,21,20.40
2009,09,18,15,22,20.40
2009,09,18,15,23,20.40
2009,09,18,15,24,20.40
2009,09,18,15,25,20.40
2009,09,18,15,26,20.40
2009,09,18,15,27,20.40
2009,09,18,15,28,20.50
2009,09,18,15,29,20.50
2009,09,18,15,30,20.50
2009,09,18,15,31,20.50
2009,09,18,15,32,20.50
2009,09,18,15,33,20.40
2009,09,18,15,34,20.40
2009,09,18,15,35,20.40
2009,09,18,15,36,20.40
2009,09,18,15,37,20.40
2009,09,18,15,38,20.40
2009,09,18,15,39,20.60
2009,09,18,15,40,20.60
2009,09,18,15,41,20.70
2009,09,18,15,42,20.80
2009,09,18,15,43,20.80
2009,09,18,15,44,20.90
2009,09,18,15,45,20.90
2009,09,18,15,46,20.90
2009,09,18,15,47,20.90
2009,09,18,15,48,20.90
2009,09,18,15,49,20.90
2009,09,18,15,50,20.90
2009,09,18,15,51,20.90
2009,09,18,15,52,20.90
2009,09,18,15,53,20.90
2009,09,18,15,54,21.00
2009,09,18,15,55,21.00
2009,09,18,15,56,20.90
2009,09,18,15,57,20.90
2009,09,18,15,58,20.90
2009,09,18,15,59,20.80
2009,09,18,16,00,20.80
2009,09,18,16,01,20.90
2009,09,18,16,02,20.90
2009,09,18,16,03,21.00
2009,09,18,16,04,21.10
2009,09,18,16,05,21.10
2009,09,18,16,06,21.20
2009,09,18,16,07,21.30
2009,09,18,16,08,21.30
2009,09,18,16,09,21.30
2009,09,18,16,10,21.40
2009,09,18,16,11,21.60
2009,09,18,16,12,21.60
2009,09,18,16,13,21.60
2009,09,18,16,14,21.60
2009,09,18,16,15,21.60
2009,09,18,16,16,21.60
2009,09,18,16,17,21.50
2009,09,18,16,18,21.40
2009,09,18,16,19,21.40
2009,09,18,16,20,21.60
2009,09,18,16,21,21.60
2009,09,18,16,22,21.60
2009,09,18,16,23,21.60
2009,09,18,16,24,21.60
2009,09,18,16,25,21.70
2009,09,18,16,26,21.70
2009,09,18,16,27,21.70
2009,09,18,16,28,21.70
2009,09,18,16,29,21.70
2009,09,18,16,30,21.70
2009,09,18,16,31,21.70
2009,09,18,16,32,21.70
2009,09,18,16,33,21.70
2009,09,18,16,34,21.70
2009,09,18,16,35,21.70
2009,09,18,16,36,21.70
2009,09,18,16,37,21.80
2009,09,18,16,38,21.80
2009,09,18,16,39,21.80
2009,09,18,16,40,21.80
2009,09,18,16,41,21.70
2009,09,18,16,42,21.60
2009,09,18,16,43,21.60
2009,09,18,16,44,21.60
2009,09,18,16,45,21.40
2009,09,18,16,46,21.40
2009,09,18,16,47,21.30
2009,09,18,16,48,21.30
2009,09,18,16,49,21.30
2009,09,18,16,50,21.30
2009,09,18,16,51,21.30
2009,09,18,16,52,21.30
2009,09,18,16,53,21.30
2009,09,18,16,54,21.20
2009,09,18,16,55,21.20
2009,09,18,16,56,21.10
2009,09,18,16,57,21.00
2009,09,18,16,58,21.00
2009,09,18,16,59,20.90
2009,09,18,17,00,20.80
2009,09,18,17,01,20.60
2009,09,18,17,02,20.50
2009,09,18,17,03,20.40
2009,09,18,17,04,20.30
2009,09,18,17,05,20.20
2009,09,18,17,06,20.20
2009,09,18,17,07,20.20
2009,09,18,17,08,20.10
2009,09,18,17,09,19.90
2009,09,18,17,10,19.90
2009,09,18,17,11,19.80
2009,09,18,17,12,19.70
2009,09,18,17,13,19.60
2009,09,18,17,14,19.60
2009,09,18,17,15,19.50
2009,09,18,17,16,19.50
2009,09,18,17,17,19.50
2009,09,18,17,18,19.50
2009,09,18,17,19,19.50
2009,09,18,17,20,19.60